Location: Lewisville
(33.0462°N, 96.9942°W)
Time: 14:32:34
(UTC-06:00)

N. Korean satellite - Pass Details

Date: 06 January 2020
Orbit: 456 x 506 km, 97.2° (Epoch: 16 February)

Event Time Altitude Azimuth Distance (km) Brightness Sun altitude
Rises 06:20:48 0° 7° (N) 2,480 10.1 -14.6°
Reaches altitude 10° 06:22:50 10° 5° (N) 1,606 9.1 -14.2°
Maximum altitude 06:26:15 65° 283° (WNW) 511 6.4 -13.5°
Drops below altitude 10° 06:29:40 10° 201° (SSW) 1,612 9.2 -12.8°
Sets 06:31:44 0° 198° (SSW) 2,492 10.2 -12.4°
